Location: Newark
(34.1333°N, 7.9667°W)
Time: 08:57:48
(UTC+00:00)

S-56A Canister/Altair - Pass Details

Date: 04 December 2021
Orbit: 634 x 2499 km, 38.9° (Epoch: 25 January)

Event Time Altitude Azimuth Distance (km) Brightness Sun altitude
Exits shadow 05:27:56 62° 256° (WSW) 785 7.2 -23.1°
Maximum altitude 05:28:33 72° 205° (SSW) 725 7.2 -22.9°
Drops below altitude 10° 05:32:59 10° 122° (ESE) 2,011 10.7 -22.1°
Sets 05:35:10 0° 120° (ESE) 2,911 11.8 -21.6°
